Location: Haliburton Scout Reserve
(45.0900°N, 78.3200°W)
Time: 19:56:42
(UTC-05:00)

Courier 1B - Pass Details

Date: 07 December 2023
Orbit: 962 x 1209 km, 28.3° (Epoch: 23 February)

Event Time Altitude Azimuth Distance (km) Brightness Sun altitude
Rises 09:33:45 0° 232° (SW) 3,807 10.6 14.1°
Reaches altitude 10° 09:37:30 10° 213° (SSW) 2,806 10.3 14.4°
Maximum altitude 09:41:41 17° 175° (S) 2,269 10.8 14.9°
Drops below altitude 10° 09:45:47 10° 136° (SE) 2,723 12.0 15.3°
Sets 09:49:21 0° 117° (ESE) 3,648 11.6 15.6°
